Lapse_Rate
4.9 5.1 5.5 5.0 5.1 5.3 5.3 5.5 5.2 5.4 5.5 5.4 5.3 5.4 5.0 5.1 5.2 5.0 5.0 4.6 4.6 4.7 5.0 5.0 4.9 4.9 5.3 5.7 5.8 5.4 5.4 5.4 4.8 4.5 4.4 4.6 4.5 4.6 4.8 4.8 5.0 5.1 5.1 4.5 3.5 3.9 4.0 5.3 5.0 4.9 4.7 4.5 4.3 4.3
5.1 4.8 5.0 4.6 4.7 5.0 5.3 5.4 5.2 5.1 5.2 5.1 5.2 5.3 5.2 5.3 5.4 5.0 5.1 5.0 5.0 4.6 5.0 4.7 4.7 4.4 4.8 5.6 5.6 5.5 5.5 5.1 4.9 4.8 4.3 4.2 4.2 4.3 4.7 4.7 5.2 5.1 5.3 5.0 5.1 5.4 5.4 5.4 5.0 4.6 4.5 4.2 3.8 4.1
5.2 4.6 4.7 4.7 4.9 5.1 5.1 5.4 5.4 5.3 5.0 5.0 5.0 5.2 5.3 5.3 5.3 5.4 5.0 4.7 4.7 4.9 5.2 5.4 5.5 4.8 4.5 5.2 4.8 5.0 5.6 5.1 5.1 4.6 4.3 4.3 4.3 4.3 4.4 4.7 4.9 4.9 5.1 5.2 5.1 5.2 5.1 5.1 5.0 4.7 4.5 4.2 3.9 4.0
5.0 4.9 4.8 5.0 4.8 4.7 4.6 4.6 4.5 4.8 5.2 5.2 5.2 5.4 5.3 4.9 4.7 4.6 4.8 4.7 4.6 4.4 4.6 5.4 5.3 5.2 5.3 5.2 5.3 5.1 5.0 5.2 5.2 5.0 4.4 4.3 4.1 4.3 4.4 4.5 4.4 4.7 4.7 5.0 4.7 5.4 5.2 4.9 4.5 4.4 4.5 4.4 4.2 4.0
5.2 5.1 5.0 5.2 5.2 5.2 4.9 4.8 4.8 4.7 5.0 5.2 5.2 5.2 5.1 4.8 4.8 4.9 4.9 4.4 4.1 4.3 4.6 5.1 5.3 4.8 5.2 5.2 5.2 5.2 5.5 5.4 5.1 4.7 4.5 4.4 4.4 4.6 4.3 4.0 3.9 5.0 5.4 5.0 5.2 5.4 4.7 4.4 4.3 4.5 4.5 4.5 4.6 4.6
5.0 5.1 5.2 5.0 4.8 4.9 4.9 4.9 4.9 4.9 4.9 5.0 4.9 5.1 5.3 5.1 4.9 4.6 4.7 4.7 4.8 4.6 4.1 4.1 4.5 5.1 5.3 5.2 5.3 5.1 5.0 4.7 4.5 4.5 4.3 4.4 4.3 4.0 3.8 3.5 4.3 4.6 4.6 5.4 5.3 4.7 4.6 4.4 4.2 4.3 4.3 4.4 4.7 4.6
4.8 4.6 4.6 4.7 4.9 5.0 4.9 4.8 4.8 4.8 4.8 4.9 4.9 4.8 4.8 4.7 4.3 4.3 4.3 4.5 4.8 4.9 4.8 4.5 4.4 4.6 5.1 5.4 5.3 5.3 5.1 5.0 4.5 4.5 4.5 4.6 4.2 3.9 3.6 3.8 4.6 4.6 5.1 4.8 4.7 4.3 4.1 4.1 4.1 4.2 4.4 4.4 4.4 4.5
4.7 4.7 4.8 5.0 4.9 4.8 4.8 4.9 4.9 4.9 4.9 4.8 4.6 4.4 4.3 4.2 4.2 4.4 4.6 4.5 4.4 4.5 4.2 4.2 4.2 4.5 5.1 5.3 5.5 5.5 5.3 5.2 5.1 5.0 4.7 4.1 4.0 4.1 3.9 4.6 4.9 5.2 5.5 5.3 5.1 4.9 4.4 4.4 4.5 4.6 4.6 4.6 4.7 4.6
4.8 4.9 4.7 4.8 4.9 5.1 5.0 4.9 4.8 4.7 4.6 4.4 3.9 4.0 3.9 4.0 4.2 4.4 4.4 4.3 4.2 4.1 4.3 4.0 4.1 4.5 4.8 5.0 5.3 5.4 5.4 5.1 4.8 4.3 4.4 4.8 4.7 4.4 5.1 5.2 5.3 5.5 5.3 5.2 5.0 4.9 5.0 4.8 4.7 4.8 5.0 5.2 5.1 5.0
5.0 5.1 5.0 4.9 4.8 4.7 4.6 4.4 4.3 4.2 4.1 4.1 4.0 4.1 4.2 4.3 4.4 4.5 4.6 4.5 4.6 4.7 4.5 4.4 5.0 4.9 4.9 4.8 4.7 5.0 4.7 4.9 4.6 4.6 5.1 4.9 5.0 5.9 6.1 6.3 6.8 6.4 6.1 5.6 5.4 5.2 5.0 4.9 4.9 4.9 5.0 5.3 5.4 5.5
5.0 5.1 5.1 5.0 4.8 4.6 4.5 4.4 4.4 4.4 4.4 4.4 4.4 4.5 4.4 4.5 4.6 4.6 4.7 4.3 4.7 4.7 4.9 5.3 5.2 4.8 4.6 4.6 4.6 4.5 4.6 4.7 4.5 4.6 4.9 4.8 4.9 5.9 6.8 6.8 6.4 6.2 6.2 6.1 6.0 5.7 5.5 5.3 5.4 5.4 5.3 5.3 5.4 5.6
5.2 5.2 5.3 5.4 5.2 5.0 5.0 5.0 5.0 5.0 5.0 4.8 4.8 4.9 4.8 4.7 4.9 5.0 4.6 4.8 5.1 4.9 4.9 5.2 4.8 4.9 5.0 5.1 5.0 4.9 5.0 4.9 4.8 4.9 5.0 4.9 5.6 6.8 6.8 7.1 7.1 7.0 6.6 6.2 6.0 5.9 5.6 5.5 5.4 5.3 5.4 5.7 5.8 5.9
5.6 5.5 5.6 5.8 5.6 5.4 5.2 5.4 5.4 5.3 5.3 5.2 5.1 5.1 5.4 5.6 5.4 5.4 5.7 5.8 6.0 5.9 6.2 6.0 5.8 5.5 5.6 5.8 5.7 5.9 5.7 5.6 5.7 5.7 5.8 6.0 6.6 6.8 6.9 6.8 6.7 6.6 6.7 6.7 6.4 6.1 5.9 5.6 5.7 5.8 5.8 5.9 5.9 6.0
6.0 6.0 5.7 5.8 5.7 5.6 5.7 5.8 5.5 5.7 5.8 5.6 5.9 6.1 6.2 6.5 6.8 7.1 7.0 7.1 7.1 6.8 6.7 6.5 6.4 6.4 6.5 6.7 6.7 6.7 6.8 6.6 6.8 6.5 6.5 7.2 7.2 7.0 6.8 6.8 6.8 6.6 6.4 6.3 6.3 6.2 5.8 5.5 5.7 6.0 6.3 6.2 6.2 6.4
6.9 6.9 6.6 6.5 6.6 6.7 6.7 6.4 6.2 6.3 6.4 6.5 6.7 6.8 7.2 7.7 7.8 7.7 7.7 7.6 7.5 7.4 7.3 7.3 7.3 7.2 7.1 7.0 7.0 7.2 7.2 7.1 7.3 7.6 7.9 7.6 7.2 7.0 6.9 6.7 7.0 6.8 6.5 6.9 6.9 5.9 5.9 6.2 6.4 6.5 6.8 6.6 6.8 6.9
7.5 7.4 7.7 7.8 7.7 7.5 7.2 6.9 6.6 6.6 6.7 6.8 6.8 7.5 8.2 8.6 8.5 8.3 8.2 8.0 7.9 7.7 7.4 7.3 7.2 7.0 6.9 7.2 7.1 7.3 7.6 7.5 7.8 8.1 7.7 7.3 7.3 7.2 7.0 7.1 7.2 6.9 6.6 6.8 6.7 6.7 7.0 7.1 7.2 7.2 7.2 7.3 7.2 7.2
7.6 7.9 8.0 7.8 7.7 7.6 7.4 7.3 7.2 7.1 6.9 7.0 7.6 8.4 8.7 8.6 8.7 8.7 8.7 8.6 8.5 8.1 7.8 7.7 7.4 7.4 7.1 7.0 6.7 6.8 7.2 7.9 8.1 8.3 8.4 8.3 8.1 7.8 7.6 7.3 7.1 7.2 7.5 7.6 7.5 7.6 7.4 7.2 7.1 7.1 7.2 7.3 7.4 7.3
8.0 8.1 8.1 7.9 7.9 7.7 7.7 7.5 7.3 7.3 7.3 8.1 8.6 9.0 8.8 8.8 8.7 8.6 8.4 8.3 8.3 8.2 8.1 7.9 7.8 7.6 7.3 7.0 7.3 8.3 8.9 8.9 8.6 8.3 7.9 7.5 7.3 7.3 7.4 7.6 7.7 7.7 7.6 7.6 7.7 7.6 7.5 7.5 7.5 7.3 7.2 7.2 7.3 7.4
8.1 8.1 8.0 8.1 8.1 8.1 8.0 7.9 7.7 7.6 8.0 8.4 8.6 8.5 8.5 8.7 8.9 8.8 8.5 8.5 8.4 8.4 8.2 7.9 7.9 7.6 8.0 8.7 9.0 9.2 9.1 9.0 8.7 8.1 7.8 7.6 8.0 8.1 8.1 8.1 8.2 8.1 8.1 8.0 7.9 7.8 7.6 7.5 7.5 7.5 7.7 7.5 7.4 7.4
8.0 8.0 8.0 8.1 8.3 8.2 8.0 7.9 7.7 7.6 7.8 8.2 8.4 8.3 8.2 8.4 8.6 8.6 8.7 8.8 8.6 8.2 8.0 8.1 8.2 8.8 9.1 9.2 9.2 9.2 9.2 9.0 8.7 8.5 8.5 8.4 8.5 8.5 8.6 8.6 8.4 8.3 8.1 7.9 7.9 7.8 7.7 7.5 7.5 7.8 8.0 8.0 7.8 7.7
8.1 8.2 8.1 8.1 8.2 8.1 8.1 7.9 7.8 7.9 7.9 8.0 8.2 8.2 8.1 8.2 8.3 8.3 8.3 8.6 8.6 8.4 8.4 8.8 9.1 9.2 9.2 9.2 9.1 9.0 9.0 8.9 8.8 8.6 8.4 8.4 8.6 8.4 8.5 8.6 8.5 8.4 8.4 8.3 8.1 7.7 7.6 7.5 7.6 7.7 7.7 8.1 8.4 8.0
8.3 8.1 8.1 8.2 8.1 8.1 8.0 7.9 8.0 7.9 7.8 7.9 7.8 7.9 7.8 7.8 7.9 8.1 8.6 8.0 8.0 8.5 9.0 9.1 9.0 9.2 9.1 8.9 8.8 8.8 8.8 8.7 8.7 8.5 8.6 8.6 8.6 8.6 8.7 8.6 8.4 8.5 8.7 8.8 8.8 8.5 8.3 8.4 8.3 8.3 8.4 8.5 8.4 8.1
8.1 8.1 8.0 8.1 8.1 8.0 7.6 7.5 7.8 7.7 7.8 7.7 7.8 7.7 7.6 7.9 8.2 8.2 7.5 7.7 8.0 8.7 9.1 9.0 8.9 8.8 8.6 8.6 8.6 8.7 8.9 8.8 8.4 8.3 8.3 8.3 8.3 8.2 8.3 8.4 8.4 8.5 8.7 8.9 8.6 8.5 8.6 8.8 8.6 8.6 8.6 8.6 8.3 8.3
7.7 7.8 7.8 7.8 7.6 7.6 7.5 7.5 7.6 7.7 7.7 7.6 7.7 7.9 8.0 8.3 8.1 7.7 7.3 7.8 8.5 8.8 9.2 9.2 9.2 8.9 8.9 8.8 8.7 8.7 8.7 8.7 8.5 8.3 8.4 8.2 8.2 8.4 8.3 8.4 8.6 8.4 8.4 8.4 8.4 8.5 8.6 8.6 8.7 8.6 8.5 8.4 8.3 8.3
7.2 7.3 7.3 7.3 7.3 7.3 7.3 7.3 7.4 7.4 7.6 7.9 7.7 8.0 8.2 8.0 7.7 7.5 7.2 7.8 8.6 9.0 9.1 9.1 8.9 8.8 8.5 8.2 8.2 8.2 8.3 8.3 8.2 8.2 8.4 8.1 8.1 8.2 8.4 8.6 8.7 8.6 8.3 8.3 8.5 8.5 8.6 8.6 8.6 8.5 8.5 8.4 8.4 8.4
6.9 6.9 7.0 7.2 7.4 7.6 7.6 7.5 7.6 7.8 7.8 7.8 8.0 8.1 8.2 8.2 7.6 6.7 7.9 8.7 8.6 8.5 8.6 8.6 8.4 8.3 8.1 8.2 8.1 8.3 8.6 8.4 8.2 8.2 8.5 8.4 8.4 8.3 8.5 8.7 8.9 9.0 8.6 8.4 8.5 8.5 8.6 8.7 8.6 8.6 8.6 8.5 8.5 8.5
7.1 7.4 7.5 7.3 7.3 7.4 7.4 7.5 7.5 7.6 7.7 7.9 8.1 8.2 8.0 7.0 6.6 7.1 8.1 8.3 8.3 8.3 8.3 8.2 8.0 7.9 7.9 8.1 8.2 8.2 8.3 8.4 8.4 8.3 8.3 8.4 8.5 8.4 8.4 8.5 8.7 8.7 8.4 8.5 8.5 8.4 8.5 8.6 8.7 8.9 8.8 8.8 8.8 8.7
7.7 7.8 7.9 7.7 7.1 7.1 7.0 6.9 7.0 7.2 7.5 7.6 7.6 7.2 6.9 7.2 7.4 7.8 7.6 8.0 8.0 7.9 7.8 8.0 8.1 8.1 8.0 8.1 8.4 8.6 8.6 8.5 8.4 8.3 8.2 8.2 8.2 8.1 8.1 8.2 8.1 8.1 8.2 8.4 8.6 8.7 8.7 8.8 8.9 9.0 8.9 8.9 8.9 8.8
7.7 7.8 7.8 7.9 7.7 7.4 7.4 7.5 7.5 7.6 7.9 7.3 7.1 7.4 7.6 7.6 7.6 7.9 8.3 8.2 8.2 8.2 8.3 8.4 8.4 8.3 8.4 8.4 8.5 8.4 8.1 7.9 7.7 7.7 7.7 7.7 7.7 7.9 7.8 7.7 7.9 8.1 8.2 8.3 8.3 8.4 8.6 8.8 8.9 9.0 8.9 8.9 8.7 8.8
8.6 8.5 8.0 7.7 7.7 7.9 8.3 7.8 7.9 7.9 7.6 7.6 7.5 7.7 8.0 8.4 8.5 8.2 8.1 8.3 8.4 8.3 8.3 8.3 8.3 8.2 8.0 7.8 7.8 7.8 7.8 7.7 7.3 7.2 7.1 7.2 7.3 7.3 7.4 7.4 7.5 7.7 7.6 7.7 7.8 8.0 8.1 8.3 8.5 8.6 8.7 8.7 8.7 8.8
8.2 8.0 8.0 8.0 8.0 8.3 8.4 8.2 8.1 8.1 8.2 8.2 8.0 7.8 8.3 8.3 8.4 8.7 8.6 8.4 8.3 8.2 8.0 8.0 7.8 7.5 7.2 7.2 7.1 7.0 7.2 7.5 7.3 7.3 7.3 7.2 7.1 7.0 7.1 7.4 7.5 7.5 7.5 7.4 7.3 7.5 7.8 8.0 8.1 8.3 8.3 8.3 8.4 8.4
8.0 8.0 7.9 7.9 8.2 8.2 8.1 8.4 8.2 8.2 8.5 8.4 8.6 8.4 8.4 8.2 8.4 8.5 8.5 8.2 8.1 8.1 7.8 7.4 7.1 7.0 7.0 6.9 6.9 6.9 6.9 7.0 7.1 7.2 7.2 7.2 7.1 7.1 7.0 7.1 7.1 7.3 7.4 7.4 7.4 7.5 7.5 7.6 7.7 7.8 7.9 8.0 8.0 7.9
8.2 8.4 8.4 8.4 8.6 8.7 8.7 8.1 8.0 8.2 8.5 8.7 8.7 8.6 8.4 8.2 8.2 8.1 8.0 7.8 7.5 7.2 7.0 6.9 6.8 6.8 6.7 6.8 6.8 6.9 6.9 6.9 6.9 6.9 6.9 6.8 6.9 7.0 7.1 7.2 7.2 7.2 7.3 7.4 7.4 7.4 7.4 7.5 7.4 7.3 7.2 7.1 7.1 7.2
Wind_Speed
26 24 23 23 21 18 12 9 8 8 8 9 8 6 5 4 3 2 1 1 0 2 3 3 2 4 3 1 1 2 2 1 2 2 2 4 3 3 2 2 6 6 6 4 4 4 9 4 4 3 3 3 5 7
28 26 23 22 22 19 14 10 7 5 4 4 3 2 3 4 4 4 2 1 2 2 3 1 5 7 6 6 1 3 1 2 2 1 2 3 3 3 2 3 1 3 5 3 7 5 3 6 5 5 5 6 2 3
22 26 23 22 19 14 11 9 6 4 3 3 1 2 3 4 3 8 2 1 0 1 4 1 4 0 4 6 3 2 2 2 2 3 2 1 4 1 3 5 4 5 5 4 1 4 6 7 8 8 7 6 7 6
11 10 11 11 11 11 9 7 6 5 3 2 2 2 2 2 5 4 2 2 2 1 3 3 2 0 3 2 5 6 4 2 2 2 2 3 3 4 3 3 2 3 2 4 6 9 10 9 5 11 13 13 13 11
8 9 8 9 11 11 10 8 6 4 3 3 3 3 4 4 4 3 2 5 4 1 3 3 8 6 4 4 5 5 5 4 3 2 2 3 2 2 3 3 11 9 17 11 11 10 11 13 8 11 12 11 10 11
2 4 4 6 7 7 6 6 5 3 2 2 3 3 4 6 6 2 2 2 4 1 2 3 4 2 3 2 3 3 2 2 3 3 3 3 5 2 4 4 5 10 13 13 13 11 10 11 10 6 8 10 9 9
6 6 5 2 2 4 4 3 3 3 2 1 2 3 3 4 3 2 2 1 5 1 1 3 3 2 4 2 2 1 2 2 2 2 3 3 3 4 3 13 7 11 15 15 12 6 5 6 5 9 8 6 8 7
9 7 6 5 4 4 3 2 2 1 1 2 3 3 3 4 5 2 2 0 3 1 1 3 4 2 3 2 2 1 2 2 3 2 1 3 3 4 7 3 9 8 2 4 5 6 4 6 6 6 5 5 6 6
13 10 9 9 7 6 5 4 2 0 2 2 4 4 2 1 2 1 2 0 3 1 2 3 3 4 2 2 0 1 1 2 2 3 3 4 3 7 6 7 4 4 3 4 6 7 3 3 6 6 5 6 5 6
14 12 10 9 8 7 6 4 2 2 3 3 3 2 2 2 2 1 1 2 1 2 3 4 3 3 3 2 3 1 1 2 2 4 4 4 7 11 8 8 6 6 4 3 5 4 3 5 6 6 6 6 6 7
13 11 10 9 7 5 7 7 5 1 1 2 2 0 1 1 2 2 2 2 3 3 3 3 3 4 2 3 3 4 3 2 3 4 6 3 3 3 6 7 6 5 3 5 5 6 6 6 6 6 8 8 7 8
16 15 15 12 10 7 8 6 4 0 1 2 2 1 1 0 2 0 2 1 2 3 1 2 1 1 2 2 3 2 3 2 5 3 2 3 4 6 7 6 4 2 4 6 5 7 8 7 7 7 7 9 8 8
15 15 14 13 12 12 11 9 6 8 5 1 2 1 1 1 3 5 4 3 2 2 1 1 2 1 1 1 3 2 5 5 1 3 3 4 3 5 6 5 4 7 9 11 10 9 8 8 8 7 8 9 9 10
15 14 15 16 12 10 11 12 11 7 1 2 2 1 4 3 4 4 3 3 1 3 2 1 1 1 1 2 3 4 4 2 3 3 4 2 2 5 4 3 4 3 8 11 13 14 13 12 11 9 10 10 7 10
14 12 11 10 12 11 7 10 12 2 2 2 2 4 5 4 1 2 2 2 0 1 1 0 2 1 2 2 3 2 3 4 4 4 2 1 3 4 2 6 11 11 11 10 11 12 13 12 13 14 11 10 11 12
17 13 11 14 16 14 12 12 3 2 1 1 2 3 2 1 2 2 2 2 2 2 1 1 1 2 4 4 1 6 2 5 3 1 2 3 5 8 10 12 12 10 12 11 11 11 12 14 13 14 13 12 15 14
21 4 14 19 17 15 17 3 2 2 4 4 4 4 3 1 2 2 4 4 4 3 2 2 4 10 2 2 3 3 3 3 5 8 8 13 13 12 11 10 10 11 10 10 11 11 12 13 12 13 15 16 14 13
6 10 17 21 19 9 1 2 2 4 7 4 3 3 3 3 2 3 4 4 4 3 3 5 3 3 4 4 6 11 12 12 12 12 11 13 15 15 13 15 14 11 11 10 11 11 10 11 12 11 12 12 9 10
9 13 22 21 14 4 4 4 3 4 8 3 2 2 2 3 4 5 4 5 6 3 2 1 4 3 7 10 12 12 11 9 10 12 12 16 16 16 15 13 12 11 11 11 11 10 10 13 11 11 10 9 9 10
23 20 23 25 16 3 5 3 3 3 4 4 2 2 3 3 3 5 7 6 3 2 3 4 7 12 12 13 13 11 10 10 10 12 13 13 12 11 12 10 9 11 10 11 10 16 11 10 9 9 8 9 9 10
10 17 22 19 5 4 4 4 5 4 2 2 1 3 3 1 2 4 7 2 3 4 4 8 13 15 17 13 12 11 12 12 11 11 13 12 12 10 11 10 11 10 10 11 11 12 15 10 10 7 5 9 9 8
1 10 2 5 3 5 3 3 2 4 3 2 1 2 2 2 3 4 3 4 3 7 9 12 13 13 14 15 14 14 13 12 13 12 18 16 12 11 11 10 9 10 10 11 11 10 11 11 9 8 9 10 11 9
8 3 1 2 3 2 1 1 2 3 4 3 3 2 3 3 4 2 2 4 5 8 11 12 16 15 12 15 14 16 15 14 12 13 13 11 11 11 10 10 10 10 11 13 10 9 10 15 12 10 9 9 8 8
3 2 2 1 3 2 3 2 1 1 2 1 4 4 4 4 1 1 4 3 10 10 11 15 8 8 10 10 9 12 13 10 10 11 11 10 10 12 11 11 10 10 10 11 9 8 9 10 14 8 8 8 9 8
4 3 3 3 1 3 5 4 5 5 5 5 4 4 4 2 2 3 4 5 10 11 11 10 9 9 10 12 11 12 15 9 10 12 13 8 9 10 12 11 11 10 6 7 10 11 11 9 8 7 9 8 11 10
3 6 8 8 4 6 6 4 6 7 4 5 7 3 2 2 1 6 4 10 7 6 8 8 9 9 9 9 11 12 13 9 8 10 14 8 9 11 13 13 13 14 6 8 10 11 11 10 8 9 10 12 18 13
4 6 3 1 2 2 0 1 0 2 5 6 4 3 4 4 8 5 7 8 6 5 7 8 9 9 10 11 11 11 10 10 9 11 10 11 12 11 10 12 16 16 4 7 7 9 11 11 10 10 9 9 7 7
5 4 8 6 3 2 5 3 6 7 5 4 3 5 7 9 9 9 7 6 6 6 6 7 7 8 9 11 11 11 11 10 10 9 9 10 10 9 11 11 12 25 14 11 10 9 10 11 11 11 10 11 10 4
4 3 4 5 3 3 6 8 7 6 5 4 5 7 9 9 9 9 11 9 4 4 10 12 13 7 9 8 8 7 7 8 7 14 19 13 12 11 5 7 8 9 8 8 14 14 10 9 10 10 11 10 7 5
5 5 4 5 7 7 7 7 5 4 4 8 7 10 13 13 12 10 11 11 10 11 11 10 10 9 9 8 10 10 7 6 6 9 12 14 13 10 5 5 6 5 4 4 4 3 11 8 6 4 4 3 3 4
4 5 2 4 7 11 12 7 6 1 2 4 5 9 16 14 14 11 10 11 10 9 6 7 5 3 3 4 3 7 11 5 6 9 9 9 10 10 10 10 8 4 5 5 5 5 4 4 3 5 6 7 8 7
3 7 5 4 5 3 1 3 3 4 3 6 9 5 10 5 7 4 1 2 3 3 4 3 3 4 4 6 7 7 17 10 10 9 12 9 9 10 10 9 9 6 5 6 5 5 6 8 5 6 7 8 7 7
1 1 0 2 3 4 3 3 2 4 2 3 3 1 2 4 6 4 2 1 3 2 3 3 4 6 9 10 10 9 13 10 16 23 25 25 25 20 12 7 7 8 9 7 7 6 8 7 6 7 6 6 6 5
Wind_Direction
241 232 230 233 225 215 213 225 243 268 296 306 291 287 289 285 256 227 126 86 295 274 284 199 228 298 312 283 262 137 95 135 144 233 248 252 249 201 344 149 167 171 163 188 196 213 256 130 93 194 205 272 295 298
243 238 232 227 208 195 189 191 210 228 275 311 336 308 319 307 240 189 257 120 136 230 274 22 275 275 250 284 250 214 106 125 201 183 286 343 331 315 254 237 357 218 202 194 195 216 153 185 223 246 269 259 334 348
243 236 232 210 178 171 173 178 182 200 172 139 117 15 32 12 315 183 156 181 108 246 274 190 240 30 230 234 251 206 237 144 166 136 151 3 254 339 261 250 243 215 233 211 21 262 287 336 323 318 357 346 334 319
59 90 112 128 139 138 134 134 146 144 127 111 104 93 66 24 46 187 181 169 270 346 260 254 91 69 90 253 232 247 301 76 53 126 175 196 206 204 245 288 240 272 5 232 255 269 289 282 309 339 334 323 315 310
80 101 114 139 141 140 143 151 149 136 123 97 49 39 23 356 340 295 184 194 262 278 292 294 317 292 143 167 252 242 228 218 165 172 200 212 205 256 200 225 250 243 257 253 262 285 288 295 310 316 309 316 334 336
325 42 73 122 126 128 134 142 140 135 84 32 29 11 6 350 333 264 236 78 9 194 303 302 316 157 68 85 182 211 251 231 182 188 195 234 168 221 267 249 214 218 238 253 269 279 283 297 296 324 337 326 335 331
225 194 188 213 167 148 146 163 153 147 120 10 331 321 348 347 336 302 338 49 11 6 227 282 264 102 82 57 356 343 142 197 198 186 221 194 182 202 258 256 271 291 286 287 296 334 327 350 319 326 318 342 333 318
243 230 204 202 187 173 172 168 143 90 41 330 312 298 291 295 277 259 94 115 183 263 276 272 277 256 160 173 217 237 182 165 203 202 194 204 180 192 246 278 241 245 14 334 336 8 296 293 334 331 322 324 323 311
228 221 214 197 185 188 183 178 159 187 301 313 304 298 286 238 241 80 340 353 192 190 247 232 234 263 116 65 29 222 349 227 192 213 185 182 190 223 225 220 221 152 182 299 320 296 293 334 302 310 324 318 301 293
215 214 218 201 196 193 195 185 200 249 300 289 211 207 201 153 346 194 189 151 144 230 235 246 250 271 147 152 203 237 196 255 257 215 149 224 245 256 246 213 176 153 179 205 262 274 281 272 282 298 298 298 296 299
202 206 198 201 206 204 218 199 187 221 216 225 207 137 43 176 209 218 218 172 158 243 217 240 219 246 242 193 224 206 200 225 249 222 184 229 256 210 93 89 96 120 188 248 257 270 279 282 290 283 285 278 279 279
209 212 205 198 202 204 172 174 167 174 1 72 70 252 300 292 24 193 214 234 218 244 102 307 19 307 318 307 222 255 216 207 245 157 202 258 243 147 127 126 101 21 324 320 308 298 297 281 268 270 273 276 277 276
205 192 191 200 206 209 193 180 166 125 144 199 69 65 81 268 191 165 208 255 233 175 176 1 279 287 295 245 246 256 224 232 40 206 229 225 152 122 112 115 79 9 355 332 320 311 294 280 279 270 272 269 265 270
195 201 210 201 211 194 193 183 169 152 166 124 133 197 187 215 234 206 190 179 120 104 190 207 259 250 249 252 238 261 237 295 246 230 227 359 115 96 149 113 78 285 277 283 280 285 281 278 276 271 270 274 258 263
193 203 199 188 179 179 180 164 146 117 127 167 124 223 222 236 306 54 37 38 31 313 141 172 297 226 277 253 227 286 321 247 222 235 78 93 78 134 236 276 291 280 266 269 274 282 285 286 285 285 280 277 272 274
193 197 202 192 192 194 167 139 113 104 64 127 239 251 239 20 254 155 151 190 251 195 110 63 276 343 259 220 213 226 223 223 259 87 214 181 205 210 220 240 260 247 256 267 270 262 267 271 276 282 284 283 281 280
188 203 182 189 190 182 155 117 86 182 202 202 239 226 262 339 211 203 170 200 198 144 209 163 186 220 319 282 259 233 219 258 296 301 286 284 283 283 281 279 273 270 266 260 262 263 265 268 271 272 270 271 276 279
195 179 180 185 178 157 83 104 147 212 228 232 220 188 191 226 236 235 209 192 155 202 158 203 208 207 226 212 259 267 271 270 272 275 277 282 286 287 284 282 282 280 277 268 264 266 269 271 271 270 269 267 265 267
188 174 184 179 167 120 166 194 180 216 217 210 211 186 206 227 220 235 238 233 213 198 119 94 228 208 233 245 254 262 262 264 270 275 277 274 272 276 279 277 274 271 266 264 267 270 274 270 267 273 275 277 271 272
206 199 192 183 157 147 170 210 178 215 213 214 175 185 186 210 232 234 247 245 176 162 213 216 225 243 250 253 253 261 266 269 271 275 275 275 275 274 268 267 268 269 268 269 265 267 269 272 266 260 260 264 265 266
228 220 207 186 187 194 186 171 177 203 187 183 270 152 226 152 219 240 255 173 193 210 235 231 242 249 255 262 263 264 267 267 268 269 273 280 283 277 276 276 271 272 272 273 271 271 277 272 271 270 259 267 266 260
200 190 104 166 214 157 208 185 176 153 143 186 176 171 212 234 227 221 188 185 222 229 230 246 250 252 256 259 261 261 261 265 264 266 272 270 271 273 272 269 269 268 266 264 265 266 266 266 268 268 267 268 272 268
118 104 117 176 147 115 140 149 139 170 178 190 161 199 233 222 230 54 212 209 228 239 241 243 252 261 261 266 271 273 269 264 268 267 267 267 266 264 260 259 255 255 263 266 256 256 260 266 268 266 264 265 266 267
84 123 135 175 174 167 114 174 207 210 174 177 178 227 250 223 106 132 231 235 251 258 260 258 259 267 272 261 259 262 267 267 263 263 260 258 261 266 260 256 253 248 244 256 261 256 254 256 260 257 255 257 262 258
110 200 166 218 210 142 185 192 198 208 231 209 189 264 253 122 191 219 221 253 254 256 263 266 261 252 253 266 273 271 268 259 261 264 263 240 251 264 269 265 262 256 241 245 257 254 257 257 254 246 249 246 251 256
196 222 188 191 192 166 192 186 198 208 175 199 220 230 97 144 176 243 227 253 255 245 251 246 247 256 252 239 256 267 270 265 252 256 264 251 253 260 264 269 276 273 197 230 247 256 256 252 247 239 249 256 260 262
217 245 237 22 145 122 153 344 68 164 190 206 230 162 138 203 232 238 252 258 250 241 244 244 239 240 249 265 270 265 269 273 256 257 267 280 278 265 253 257 266 272 188 222 224 232 247 255 248 247 248 257 241 226
206 184 177 188 204 176 182 192 186 209 222 216 141 184 201 207 249 258 255 260 233 254 248 243 228 234 249 261 267 273 276 273 271 273 276 272 265 264 259 258 260 270 272 265 260 254 251 257 262 264 259 262 272 234
218 186 135 185 166 197 211 201 216 216 196 160 200 238 247 248 264 271 276 277 265 267 280 280 278 265 268 271 265 262 259 265 269 272 274 274 282 276 241 247 250 256 260 258 259 259 256 253 254 255 254 256 255 238
226 165 185 171 180 218 229 187 239 239 210 229 244 267 271 269 266 270 274 279 276 273 273 274 280 286 285 285 284 282 270 263 243 250 265 271 273 282 270 245 244 245 242 239 243 248 264 278 292 312 302 293 271 257
153 174 212 215 235 241 249 245 257 271 206 213 206 242 263 278 292 280 257 262 263 267 274 279 281 263 267 292 285 300 292 279 271 289 288 292 294 291 286 278 270 241 232 225 229 225 225 250 238 243 251 253 259 267
170 194 192 234 266 277 21 192 219 219 237 238 251 235 266 262 265 281 297 47 52 45 347 335 311 302 291 287 282 275 278 286 288 283 280 275 276 273 273 278 278 262 231 220 218 223 222 228 230 234 245 252 252 253
82 102 296 291 304 286 261 134 290 290 316 276 263 241 246 195 231 261 321 69 138 185 259 266 262 279 286 286 280 284 292 284 284 289 294 295 295 291 288 275 256 246 238 228 224 222 224 223 231 239 243 246 252 252